Tracking 33744 objects as of 12-Apr-2026
HD Live streaming from Space Station
objects crossing your sky now

STARLINK-36888

Track STARLINK-36888 now!
10-day predictions
STARLINK-36888 is classified as:


NORAD ID: 68004
Int'l Code: 2026-039U
Perigee: 486.8 km
Apogee: 488.5 km
Inclination: 43.0 °
Period: 94.2 minutes
Semi major axis: 6858 km
RCS: Unknown
Launch date: February 27, 2026
Source: United States (US)
Launch site: AIR FORCE WESTERN TEST RANGE (AFWTR)
Your satellite tracking list
Your tracking list is empty




NASA's NSSDC Master Catalog

Two Line Element Set (TLE):
1 68004U 26039U   26102.33035554  .00015808  00000-0  56798-3 0  9997
2 68004  42.9998 219.3512 0001194 275.5955  84.4761 15.28423282  6842
Source of the keplerian elements: AFSPC